Regional Weather Roundup
Issued by NWS Newport/Morehead, NC

Current Version | Previous Version | Graphics & Text | Print | Product List | Glossary Off
Versions: 1 2 3 4 5 6 7 8 9 10 11 12 13 14 15 16 17 18 19 20 21 22 23 24 25 26 27 28 29 30 31 32 33 34 35 36 37 38 39 40 41 42 43 44 45 46 47 48 49 50

000
ASUS42 KMHX 210124
RWRMHX
WEATHER ROUNDUP FOR EASTERN NORTH CAROLINA
NATIONAL WEATHER SERVICE NEWPORT/MOREHEAD CITY NC
900 PM EDT MON APR 20 2015

NOTE: "FAIR" INDICATES FEW OR NO CLOUDS BELOW 12,000 FEET
WITH NO SIGNIFICANT WEATHER AND/OR OBSTRUCTIONS TO VISIBILITY

NCZ015>017-031-032-045>047-102-103-210200-
NORTH COAST

CITY           SKY/WX    TMP DP  RH WIND       PRES   REMARKS
EDENTON        CLOUDY    71  63  76 SW14G20   29.70R
ELIZABETH CITY CLOUDY    71  62  73 S12G21    29.69R
KITTY HAWK     CLOUDY    70  64  83 S10G22    29.70S
MANTEO         CLOUDY    69  65  85 SW23      29.72S

$$

NCZ045>047-081-094-103-104-210200-
CENTRAL COAST

CITY           SKY/WX    TMP DP  RH WIND       PRES   REMARKS
FRISCO         CLOUDY    68  65  90 SW13G21   29.76S
SWANQUARTER      N/A     70 N/A N/A S22       29.71S

$$

NCZ095-097-098-100-101-210200-
SOUTHERN COAST

CITY           SKY/WX    TMP DP  RH WIND       PRES   REMARKS
BEAUFORT       CLOUDY    69  65  86 SW14      29.77R
CEDAR ISLAND     N/A     72 N/A N/A S15G22    29.79S
JACKSONVILLE   CLOUDY    68  64  87 SW10      29.76R
PINEY ISLAND   CLOUDY   N/A N/A N/A S17G24    29.76R
WILMINGTON     CLOUDY    69  64  84 SW13      29.78R


$$

NCZ011>013-027>030-043-044-078>080-089-090>093-098-210200-
COASTAL PLAIN

CITY           SKY/WX    TMP DP  RH WIND       PRES   REMARKS
AHOSKIE        CLOUDY    71  60  69 S5        29.68R
CLINTON        CLOUDY    71  64  79 S7        29.72S
ELIZABETHTOWN  CLOUDY    69  66  90 S9G16     29.73F
GOLDSBORO      CLOUDY    72  65  79 S9G17     29.69S
GREENVILLE     CLOUDY    72  63  73 SW13G21   29.73R
HAVELOCK       CLOUDY    69  63  81 SW16G23   29.76S
KENANSVILLE    CLOUDY    69  63  81 S3        29.74R
KINSTON        CLOUDY    72  63  73 MISG      29.72R
NEW BERN       CLOUDY    69  63  81 S10       29.75R
RICHLANDS      CLOUDY    68  61  77 S10G21    29.76R
ROCKY MOUNT    CLOUDY    72  63  73 S9        29.68R
WASHINGTON     CLOUDY    70  62  74 S9        29.72R
WHITEVILLE     CLOUDY    68  65  90 S6        29.76R

$$

AMZ130-135-150-152-154-156-158-170-250-252-270-ANZ085-086-088-633-658-670-210200-
MARINE OBSERVATIONS

STATION/POSITION TIME  TEMP    WIND        PRES    WAVE   SWELL
                       AIR SEA DIR/SP/G            HT/PER HT/PER
                 (UTC) (F)     (DEG/KT/KT) (MB)    (FT/S) (FT/S)
CHESAPEAKE LIGHT 0100   65     190/ 28/ 28 1004.1
64 E VA BEACH    0050   62 58  200/ 17/ 21 1005.3    6/ 8   3/ 8
DUCK             0100   71 54  190/ 18/ 21 1004.4
2 E DUCK         0011      57                N/A     5/ 8   2/13
10 NE DUCK       NOT AVBL
OREGON INLET     0100   69 68  190/ 20/ 22 1006.7
HATTERAS CG      0100   71 69  190/  8/ 14 1007.3
DIAMOND BUOY     0050   74 75  200/ 21/ 25 1007.5    5/ 6   3/ 7
CAPE LOOKOUT     0100   68     200/ 10/ 13 1007.8
BEAUFORT LAB     0100   69 66  220/  9/ 13 1007.1
27 SE WRIGHTSVLE 0100   67 72  230/ 12/ 14   N/A
5 SE WRIGHTSVLE  0100   68 65  220/ 16/ 17 1007.9
225 S CAPE HAT   0050   74 73  230/ 14/ 16 1011.8    4/ 8   3/ 8
41 SE CHARLESTON 0050   75 74  180/ 23/ 27 1006.9    4/ 5   2/ 9

$$



USA.gov is the U.S. government's official web portal to all federal, state and local government web resources and services.